{"data":{"norad_id":49724,"intl_designator":"2021-115A","name":"STARLINK-3219","alt_names":[],"object_type":"PAYLOAD","status":"ACTIVE","operator":null,"country":"US","launch_date":"2021-12-02","launch_site_code":"AFETR","launch_vehicle":null,"mission":null,"orbit_class":"UNKNOWN","rcs_meters":null,"size_class":null,"mass_kg":null,"dimensions":null,"purposes":["comms"],"wikipedia_slug":null,"has_3d_model":false,"image_url":null,"decayed_at":null,"tle_current":{"epoch":"2026-09-19T18:43:26.412384Z","epoch_age_seconds":107533,"freshness":"FRESH","line1":"1 49724U 21115A   26262.78016681 -.00000561  00000+0 -63151-5 0  9995","line2":"2 49724  53.1625 343.1247 0001298  83.6680 276.4469 15.31702057265030","mean_motion":15.31702057,"eccentricity":0.0001298,"inclination_deg":53.1625,"raan_deg":343.1247,"arg_perigee_deg":83.668,"mean_anomaly_deg":276.4469,"bstar":-6.3151e-6,"rev_number":26503,"period_min":94.013061706034,"perigee_km":469.84487998448,"apogee_km":471.62284686062,"semimajor_km":6848.8708634225,"source":"CELESTRAK","updated_at":"2026-09-20T09:00:39.402927Z"}}}